TimeEDT,TemperatureF,Dew PointF,Humidity,Sea Level PressureIn,VisibilityMPH,Wind Direction,Wind SpeedMPH,Gust SpeedMPH,PrecipitationIn,Events,Conditions,WindDirDegrees,DateUTC
12:56 AM,68.0,66.9,96,30.12,0.8,Calm,Calm,-,N/A,,Mist,0,2012-10-04 04:56:00
1:12 AM,68.0,66.2,94,30.12,1.0,Calm,Calm,-,N/A,,Mist,0,2012-10-04 05:12:00
1:39 AM,68.0,66.2,94,30.13,0.5,Calm,Calm,-,N/A,Fog,Fog,0,2012-10-04 05:39:00
1:56 AM,68.0,66.9,96,30.13,0.5,Calm,Calm,-,N/A,Fog,Fog,0,2012-10-04 05:56:00
2:56 AM,68.0,66.9,96,30.12,0.8,Calm,Calm,-,N/A,,Mist,0,2012-10-04 06:56:00
3:17 AM,68.0,66.2,94,30.12,1.8,Calm,Calm,-,N/A,,Overcast,0,2012-10-04 07:17:00
3:37 AM,68.0,66.2,94,30.12,2.5,Calm,Calm,-,N/A,,Overcast,0,2012-10-04 07:37:00
3:44 AM,68.0,66.2,94,30.12,4.0,Calm,Calm,-,N/A,,Overcast,0,2012-10-04 07:44:00
3:56 AM,68.0,66.9,96,30.12,4.0,Calm,Calm,-,N/A,,Overcast,0,2012-10-04 07:56:00
4:04 AM,68.0,66.2,94,30.12,1.8,Calm,Calm,-,N/A,,Overcast,0,2012-10-04 08:04:00
4:10 AM,68.0,66.2,94,30.12,0.8,Calm,Calm,-,N/A,,Mist,0,2012-10-04 08:10:00
4:23 AM,68.0,66.2,94,30.12,1.8,Calm,Calm,-,N/A,,Overcast,0,2012-10-04 08:23:00
4:31 AM,68.0,66.2,94,30.12,2.5,Calm,Calm,-,N/A,,Overcast,0,2012-10-04 08:31:00
4:38 AM,68.0,66.2,94,30.12,4.0,Calm,Calm,-,N/A,,Overcast,0,2012-10-04 08:38:00
4:56 AM,69.1,66.9,93,30.12,3.0,Calm,Calm,-,N/A,,Overcast,0,2012-10-04 08:56:00
5:18 AM,68.0,66.2,94,30.12,3.0,Calm,Calm,-,N/A,,Overcast,0,2012-10-04 09:18:00
5:26 AM,68.0,66.2,94,30.12,2.5,Calm,Calm,-,N/A,,Overcast,0,2012-10-04 09:26:00
5:40 AM,68.0,66.2,94,30.12,3.0,Calm,Calm,-,N/A,,Overcast,0,2012-10-04 09:40:00
5:56 AM,68.0,66.9,96,30.12,2.5,Calm,Calm,-,N/A,,Overcast,0,2012-10-04 09:56:00
6:05 AM,68.0,66.2,94,30.12,3.0,Calm,Calm,-,N/A,,Overcast,0,2012-10-04 10:05:00
6:18 AM,69.8,66.2,88,30.13,3.0,Calm,Calm,-,N/A,,Overcast,0,2012-10-04 10:18:00
6:29 AM,69.8,66.2,88,30.13,2.5,Calm,Calm,-,N/A,,Overcast,0,2012-10-04 10:29:00
6:43 AM,69.8,66.2,88,30.13,1.0,Calm,Calm,-,N/A,,Overcast,0,2012-10-04 10:43:00
6:52 AM,68.0,66.2,94,30.13,0.8,SSE,3.5,-,N/A,,Mist,150,2012-10-04 10:52:00
6:56 AM,68.0,66.9,96,30.13,0.8,Calm,Calm,-,N/A,,Mist,0,2012-10-04 10:56:00
7:17 AM,68.0,66.2,94,30.13,0.2,Calm,Calm,-,N/A,Fog,Fog,0,2012-10-04 11:17:00
7:56 AM,68.0,66.9,96,30.13,0.2,SE,4.6,-,N/A,Fog,Fog,140,2012-10-04 11:56:00
8:56 AM,68.0,66.9,96,30.14,0.8,Calm,Calm,-,N/A,,Mist,0,2012-10-04 12:56:00
9:20 AM,66.2,66.2,100,30.14,0.2,SE,3.5,-,N/A,Fog,Fog,130,2012-10-04 13:20:00
9:34 AM,66.2,66.2,100,30.14,0.5,Calm,Calm,-,N/A,Fog,Fog,0,2012-10-04 13:34:00
9:56 AM,66.9,66.0,97,30.14,0.5,Calm,Calm,-,N/A,Fog,Fog,0,2012-10-04 13:56:00
10:16 AM,68.0,66.2,94,30.14,0.2,Calm,Calm,-,N/A,Fog,Fog,0,2012-10-04 14:16:00
10:43 AM,68.0,66.2,94,30.14,1.0,South,3.5,-,N/A,,Overcast,170,2012-10-04 14:43:00
10:56 AM,68.0,66.9,96,30.14,1.2,Calm,Calm,-,N/A,,Overcast,0,2012-10-04 14:56:00
11:09 AM,68.0,66.2,94,30.14,2.0,SSE,3.5,-,N/A,,Overcast,160,2012-10-04 15:09:00
11:56 AM,68.0,66.9,96,30.12,1.0,Calm,Calm,-,N/A,,Overcast,0,2012-10-04 15:56:00
12:24 PM,68.0,66.2,94,30.12,2.5,SSE,5.8,-,N/A,,Overcast,150,2012-10-04 16:24:00
12:40 PM,68.0,66.2,94,30.12,4.0,SE,4.6,-,N/A,,Overcast,140,2012-10-04 16:40:00
12:56 PM,70.0,66.9,90,30.10,6.0,SE,3.5,-,N/A,,Overcast,140,2012-10-04 16:56:00
1:06 PM,69.8,66.2,88,30.10,6.0,ESE,4.6,-,N/A,,Overcast,110,2012-10-04 17:06:00
1:56 PM,66.9,64.9,93,30.08,6.0,SSE,6.9,-,N/A,,Overcast,150,2012-10-04 17:56:00
2:56 PM,68.0,66.0,93,30.09,6.0,SSE,3.5,-,0.00,,Overcast,150,2012-10-04 18:56:00
3:56 PM,69.1,66.0,90,30.08,8.0,SSW,3.5,-,N/A,,Overcast,200,2012-10-04 19:56:00
4:56 PM,68.0,66.0,93,30.06,8.0,SE,5.8,-,N/A,,Overcast,140,2012-10-04 20:56:00
5:39 PM,66.2,64.4,94,30.06,2.5,SSE,4.6,-,N/A,,Overcast,150,2012-10-04 21:39:00
5:56 PM,66.9,64.9,93,30.05,1.5,SE,5.8,-,N/A,,Overcast,140,2012-10-04 21:56:00
6:26 PM,66.2,64.4,94,30.05,2.0,Calm,Calm,-,N/A,,Overcast,0,2012-10-04 22:26:00
6:39 PM,66.2,66.2,100,30.05,3.0,Calm,Calm,-,N/A,,Overcast,0,2012-10-04 22:39:00
6:46 PM,66.2,64.4,94,30.05,1.8,Calm,Calm,-,N/A,,Overcast,0,2012-10-04 22:46:00
6:56 PM,66.9,66.0,97,30.05,1.8,Calm,Calm,-,N/A,,Overcast,0,2012-10-04 22:56:00
7:33 PM,66.2,66.2,100,30.05,3.0,South,3.5,-,N/A,,Overcast,190,2012-10-04 23:33:00
7:48 PM,66.2,66.2,100,30.04,2.5,SSE,5.8,-,N/A,,Overcast,150,2012-10-04 23:48:00
7:56 PM,66.9,66.0,97,30.05,3.0,SSW,3.5,-,N/A,,Overcast,210,2012-10-04 23:56:00
8:03 PM,66.2,66.2,100,30.06,1.8,WSW,3.5,-,0.00,Rain,Light Rain,250,2012-10-05 00:03:00
8:28 PM,66.2,66.2,100,30.06,3.0,Calm,Calm,-,0.03,Rain,Light Rain,0,2012-10-05 00:28:00
8:56 PM,66.9,66.0,97,30.05,2.0,South,4.6,-,0.03,,Overcast,180,2012-10-05 00:56:00
9:04 PM,66.2,66.2,100,30.05,1.2,Calm,Calm,-,N/A,,Overcast,0,2012-10-05 01:04:00
9:15 PM,66.2,66.2,100,30.05,0.8,South,5.8,-,N/A,,Mist,190,2012-10-05 01:15:00
9:25 PM,66.2,66.2,100,30.05,2.0,South,3.5,-,N/A,,Overcast,190,2012-10-05 01:25:00
9:33 PM,66.2,66.2,100,30.05,4.0,Calm,Calm,-,N/A,,Overcast,0,2012-10-05 01:33:00
9:43 PM,66.2,66.2,100,30.06,2.0,SSW,3.5,-,N/A,,Overcast,200,2012-10-05 01:43:00
10:07 PM,66.2,66.2,100,30.06,3.0,South,3.5,-,N/A,,Overcast,190,2012-10-05 02:07:00
10:23 PM,66.2,66.2,100,30.05,1.8,South,3.5,-,N/A,,Overcast,180,2012-10-05 02:23:00
10:56 PM,66.9,66.0,97,30.06,0.5,Calm,Calm,-,N/A,Fog,Fog,0,2012-10-05 02:56:00
11:56 PM,66.9,66.0,97,30.05,0.5,Calm,Calm,-,N/A,Fog,Fog,0,2012-10-05 03:56:00